DMSP 5D-2 F13 DEB

基本信息
目录编号:
42275
目录名称:
DMSP 5D-2 F13 DEB
国际标识:
1995-015GR
轨道中心:
EARTH
物体状态:
已陨落(2023-12-08)
发射日期:
1995-03-24 UTC
轨道信息
数据来源: 国际轨道数据
星历时间: 2023-12-05T15:54:38+0800
半长轴: 6706.433km
偏心率: 0.0017427
轨道倾角: 98.550°
近地点辐角: 302.888°
升交点赤经: 144.719°
平近点角: 57.071°
近地点: 316.61km
远地点: 339.986km
周期: 91.096分钟
每日圈数: 15.807583
详细信息
发射场:
AFWTR
轨道高度:
LEO
数据来源:
AOE Integration Group
参考系:
TEME
时间系统:
UTC
历元类型:
SGP4
2D轨道图
3D轨道图
轨道高度分析图
轨道倾角分析图
轨道综合分析图
查看轨道综合分析图